Tyler, TX

2:49 AM CDT on March 26, 2017 (GMT -0500)
Tyler Pounds

Weather History for KTYR - March, 2014

Change the Weather History Date:

Wednesday, March 26, 2014

  Actual Average Record
Temperature  
Mean Temperature 52 °F 59 °F  
Max Temperature 64 °F 69 °F 89 °F (1905)
Min Temperature 40 °F 49 °F 22 °F (1955)
Degree Days  
Heating Degree Days 13 7  
Month to date heating degree days 337 240  
Since 1 July heating degree days 2401 2132  
Cooling Degree Days 0 1  
Month to date cooling degree days 8 14  
Year to date cooling degree days 11 26  
Growing Degree Days 2 (Base 50)    
Moisture  
Dew Point 34 °F    
Average Humidity 51    
Maximum Humidity 71    
Minimum Humidity 30    
Precipitation  
Precipitation T in 0.12 in 1.79 in (1977)
Month to date precipitation 1.64 3.56  
Year to date precipitation 5.64 10.43  
Snow  
Snow 0.00 in - - ()
Month to date snowfall 1.0  
Since 1 July snowfall 1.2  
Snow Depth 0.00 in    
Sea Level Pressure  
Sea Level Pressure 30.13 in    
Wind  
Wind Speed 14 mph (SE)    
Max Wind Speed 26 mph    
Max Gust Speed 38 mph    
Visibility 10 miles    
Events Rain    
T = Trace of Precipitation, MM = Missing Value Source: NWS Daily Summary

Daily Weather History Graph

Daily Weather History Graph

Search for Another Location

Airport or City:

Trip Planner

Search our weather history database for the weather conditions in past years. The results will help you decide how hot, cold, wet, or windy it might be!

Date:

Astronomy

Mar. 26, 2014 Rise Set
Actual Time 7:17 AM CDT 7:37 PM CDT
Civil Twilight 6:52 AM CDT 8:01 PM CDT
Nautical Twilight 6:24 AM CDT 8:30 PM CDT
Astronomical Twilight 5:55 AM CDT 8:59 PM CDT
Moon 4:12 AM CDT 3:30 PM CDT
Length of Visible Light 13h 08m
Length of Day
12h 19m
Waning Crescent, 21% of the Moon is Illuminated
Mar 26
Waning Crescent
Mar 30
New
Apr 7
First Quarter
Apr 15
Full
Apr 22
Last Quarter

Hourly Weather History & Observations

Time (CDT) Temp. Windchill Dew Point Humidity Pressure Visibility Wind Dir Wind Speed Gust Speed Precip Events Conditions
12:53 AM 46.0 °F 44.8 °F 28.9 °F 51% 30.23 in 10.0 mi ENE 3.5 mph - N/A   Clear
1:53 AM 48.0 °F - 28.0 °F 46% 30.21 in 10.0 mi East 8.1 mph - N/A   Clear
2:53 AM 48.9 °F - 27.0 °F 43% 30.19 in 10.0 mi East 8.1 mph - N/A   Clear
3:53 AM 45.0 °F 41.8 °F 28.0 °F 52% 30.20 in 10.0 mi SE 5.8 mph - N/A   Clear
4:53 AM 46.0 °F 44.8 °F 27.0 °F 47% 30.21 in 10.0 mi SSE 3.5 mph - N/A   Clear
5:53 AM 41.0 °F 36.4 °F 30.0 °F 65% 30.22 in 10.0 mi ESE 6.9 mph - N/A   Clear
6:53 AM 45.0 °F 39.3 °F 28.9 °F 53% 30.21 in 10.0 mi ESE 11.5 mph - N/A   Clear
7:53 AM 46.9 °F - 28.9 °F 50% 30.20 in 10.0 mi ESE 12.7 mph - N/A   Clear
8:53 AM 51.1 °F - 28.9 °F 43% 30.20 in 10.0 mi SE 16.1 mph - N/A   Clear
9:53 AM 55.0 °F - 30.0 °F 38% 30.20 in 10.0 mi SSE 17.3 mph 25.3 mph N/A   Overcast
10:53 AM 57.0 °F - 32.0 °F 39% 30.22 in 10.0 mi SSE 13.8 mph - N/A   Mostly Cloudy
11:53 AM 57.0 °F - 33.1 °F 40% 30.21 in 10.0 mi SSE 12.7 mph - 0.00 in   Overcast
12:53 PM 57.0 °F - 33.1 °F 40% 30.18 in 10.0 mi SSE 11.5 mph - 0.00 in Rain Light Rain
1:53 PM 57.9 °F - 36.0 °F 44% 30.13 in 10.0 mi SE 19.6 mph 25.3 mph 0.00 in   Overcast
2:53 PM 63.0 °F - 33.1 °F 33% 30.07 in 10.0 mi SE 24.2 mph 29.9 mph N/A   Overcast
3:53 PM 62.1 °F - 30.9 °F 31% 30.05 in 10.0 mi South 17.3 mph 28.8 mph N/A   Mostly Cloudy
4:53 PM 60.1 °F - 33.1 °F 36% 30.04 in 10.0 mi SSE 21.9 mph 27.6 mph 0.00 in   Overcast
5:53 PM 61.0 °F - 39.9 °F 46% 30.02 in 10.0 mi South 17.3 mph 25.3 mph N/A   Overcast
6:53 PM 59.0 °F - 42.1 °F 53% 30.02 in 10.0 mi SSE 15.0 mph 24.2 mph N/A   Overcast
7:53 PM 57.0 °F - 42.1 °F 57% 30.01 in 10.0 mi SSE 11.5 mph 24.2 mph N/A   Overcast
8:53 PM 55.9 °F - 43.0 °F 62% 30.01 in 10.0 mi SSE 16.1 mph 24.2 mph N/A   Overcast
9:53 PM 55.9 °F - 44.1 °F 64% 30.01 in 10.0 mi SSE 15.0 mph - N/A   Overcast
10:53 PM 55.0 °F - 44.1 °F 67% 30.01 in 10.0 mi SSE 13.8 mph - N/A   Overcast
11:53 PM 54.0 °F - 44.1 °F 69% 29.99 in 10.0 mi SSE 15.0 mph 20.7 mph N/A   Overcast